Back to catalog

STARLINK-4213

AliveCommunicationsVLEO
NORAD 52872·PAYLOAD·🇺🇸 United States

Launched Jun 17, 2022 from Cape Canaveral Space Force Station

Loading…

Next Passes (next 24 hours)

TLE

FreshSource: CelesTrak SupGP

Epoch: Sep 14, 2026, 21:12 UTC

1 52872C 22062AU  26257.88381944  .00037005  00000+0  11903-2 0  2570
2 52872  53.1575 231.4067 0001118  84.4361 341.4655 15.31675938    19

Track STARLINK-4213 in real time with AllMySat

Download on the App Store